{"data":{"norad_id":58880,"intl_designator":"2024-020E","name":"STARLINK-31328","alt_names":[],"object_type":"PAYLOAD","status":"ACTIVE","operator":null,"country":"US","launch_date":"2024-01-29","launch_site_code":"AFWTR","launch_vehicle":null,"mission":null,"orbit_class":"UNKNOWN","rcs_meters":null,"size_class":null,"mass_kg":null,"dimensions":null,"purposes":["comms"],"wikipedia_slug":null,"has_3d_model":false,"image_url":null,"decayed_at":null,"tle_current":{"epoch":"2026-09-20T02:35:55.837824Z","epoch_age_seconds":186377,"freshness":"STALE","line1":"1 58880U 24020E   26263.10828516  .00001789  00000+0  64067-4 0  9998","line2":"2 58880  53.1610 123.2209 0001123 102.9450 257.1678 15.34399338148067","mean_motion":15.34399338,"eccentricity":0.0001123,"inclination_deg":53.161,"raan_deg":123.2209,"arg_perigee_deg":102.945,"mean_anomaly_deg":257.1678,"bstar":6.4067e-5,"rev_number":14806,"period_min":93.847798570935,"perigee_km":461.93698123139,"apogee_km":463.47343439126,"semimajor_km":6840.8422078113,"source":"CELESTRAK","updated_at":"2026-09-21T09:00:33.992573Z"}}}